Powrót do katalogu

FENGYUN 1C DEB

LostSSO
NORAD 31413·DEBRIS·🇨🇳 China

Wystrzelony May 10, 1999 z Taiyuan Satellite Launch Center

Loading…

Następne Przeloty (najbliższe 24 godziny)

TLE

NieaktualneSource: Space-Track

Epoka: Nov 27, 2015, 22:48 UTC

1 31413U 99025BSZ 15331.95041123 +.00000790 +00000-0 +34005-3 0  9996
2 31413 098.7417 032.9781 0073158 303.2519 059.0305 14.26056564446361

Śledź FENGYUN 1C DEB w czasie rzeczywistym z AllMySat

Download on the App Store